RYR1994 EGCC-EGNV

Flight info

Callsign RYR1994
Flight time 0h 26m
Altitude 15000
Route POL P18 GASKO
Aircraft A20N/M-SDE2E3FGHIRWXY/LB1

Departure

Time 2026-05-06 14:12
Airport Manchester Airport (EGCC)

Arrival

Time 2026-05-06 14:38
Airport Teesside International Airport (EGNV)
Time Latitude Longitude Altitude Speed Heading
2026-05-06 14:00 53.35589 -2.28135 236 ft 0 kts 345°
2026-05-06 14:06 53.35577 -2.28130 240 ft 3 kts
2026-05-06 14:06 53.35540 -2.28131 237 ft 6 kts 343°
2026-05-06 14:06 53.35526 -2.28102 241 ft 5 kts 258°
2026-05-06 14:07 53.35532 -2.28079 238 ft 0 kts 218°
2026-05-06 14:07 53.35530 -2.28082 238 ft 9 kts 218°
2026-05-06 14:07 53.35428 -2.28157 235 ft 10 kts 189°
2026-05-06 14:07 53.35319 -2.28200 235 ft 20 kts 202°
2026-05-06 14:08 53.35207 -2.28349 230 ft 21 kts 232°
2026-05-06 14:08 53.35119 -2.28532 228 ft 20 kts 231°
2026-05-06 14:08 53.35031 -2.28710 226 ft 20 kts 229°
2026-05-06 14:08 53.34943 -2.28867 224 ft 17 kts 226°
2026-05-06 14:09 53.34867 -2.28999 222 ft 14 kts 226°
2026-05-06 14:09 53.34806 -2.29062 223 ft 0 kts 196°
2026-05-06 14:10 53.34800 -2.29065 222 ft 11 kts 196°
2026-05-06 14:11 53.34686 -2.29004 219 ft 10 kts 124°
2026-05-06 14:11 53.34714 -2.28854 221 ft 12 kts 49°
2026-05-06 14:11 53.34979 -2.28316 228 ft 106 kts 50°
2026-05-06 14:11 53.35638 -2.26980 355 ft 183 kts 50°
2026-05-06 14:12 53.36493 -2.25248 1374 ft 201 kts 50°
2026-05-06 14:12 53.37407 -2.23407 2649 ft 207 kts 48°
2026-05-06 14:12 53.38469 -2.21753 3750 ft 219 kts 46°
2026-05-06 14:12 53.39513 -2.19560 4084 ft 265 kts 53°
2026-05-06 14:13 53.40661 -2.16855 4459 ft 300 kts 54°
2026-05-06 14:13 53.42190 -2.14374 5222 ft 317 kts 32°
2026-05-06 14:13 53.44208 -2.12806 5973 ft 330 kts 20°
2026-05-06 14:13 53.46395 -2.11726 7121 ft 324 kts 13°
2026-05-06 14:14 53.48526 -2.11004 8371 ft 283 kts
2026-05-06 14:14 53.50190 -2.10604 9580 ft 210 kts
2026-05-06 14:14 53.51670 -2.10347 10333 ft 213 kts
2026-05-06 14:14 53.53347 -2.10161 10371 ft 265 kts
2026-05-06 14:15 53.55284 -2.10095 11216 ft 278 kts 360°
2026-05-06 14:15 53.57247 -2.10105 12381 ft 281 kts 359°
2026-05-06 14:15 53.59272 -2.10156 13250 ft 288 kts 358°
2026-05-06 14:15 53.61297 -2.10221 14442 ft 290 kts 358°
2026-05-06 14:16 53.63296 -2.10282 15710 ft 284 kts 358°
2026-05-06 14:16 53.65240 -2.10332 16967 ft 274 kts 359°
2026-05-06 14:16 53.67120 -2.10366 18075 ft 272 kts 359°
2026-05-06 14:16 53.68997 -2.10390 18111 ft 306 kts 359°
2026-05-06 14:17 53.71100 -2.10348 18580 ft 323 kts
2026-05-06 14:17 53.73440 -2.10067 18808 ft 351 kts
2026-05-06 14:17 53.75965 -2.09587 18920 ft 378 kts
2026-05-06 14:17 53.78553 -2.08984 19350 ft 379 kts
2026-05-06 14:18 53.81124 -2.08322 19107 ft 364 kts
2026-05-06 14:18 53.83558 -2.07650 18881 ft 346 kts
2026-05-06 14:18 53.85869 -2.06986 18659 ft 330 kts
2026-05-06 14:18 53.88091 -2.06327 18433 ft 319 kts
2026-05-06 14:19 53.90241 -2.05677 18214 ft 318 kts
2026-05-06 14:19 53.92420 -2.05010 17986 ft 318 kts 10°
2026-05-06 14:19 53.94591 -2.04340 17765 ft 316 kts 10°
2026-05-06 14:19 53.96749 -2.03678 17543 ft 314 kts 12°
2026-05-06 14:20 53.98738 -2.02211 17345 ft 315 kts 31°
2026-05-06 14:20 54.00756 -2.00841 17136 ft 314 kts
2026-05-06 14:20 54.02960 -2.00550 16911 ft 314 kts
2026-05-06 14:20 54.05253 -2.00410 16692 ft 356 kts
2026-05-06 14:21 54.07856 -2.00051 16467 ft 393 kts
2026-05-06 14:21 54.10517 -1.99456 16112 ft 376 kts
2026-05-06 14:21 54.13149 -1.98748 15522 ft 403 kts
2026-05-06 14:21 54.16069 -1.98078 14920 ft 442 kts
2026-05-06 14:22 54.19155 -1.96710 14305 ft 477 kts 22°
2026-05-06 14:22 54.22008 -1.93531 13685 ft 506 kts 41°
2026-05-06 14:22 54.24237 -1.88739 13055 ft 528 kts 59°
2026-05-06 14:22 54.25531 -1.83002 12440 ft 495 kts 77°
2026-05-06 14:23 54.25690 -1.77416 11842 ft 452 kts 96°
2026-05-06 14:23 54.24805 -1.72498 11140 ft 420 kts 117°
2026-05-06 14:23 54.23044 -1.68735 10355 ft 397 kts 140°
2026-05-06 14:23 54.20690 -1.66562 9562 ft 378 kts 164°
2026-05-06 14:24 54.18103 -1.65925 8785 ft 396 kts 176°
2026-05-06 14:24 54.15164 -1.65506 8313 ft 448 kts 179°
2026-05-06 14:24 54.11981 -1.66495 8115 ft 485 kts 199°
2026-05-06 14:24 54.08710 -1.68462 8025 ft 513 kts 194°
2026-05-06 14:25 54.05097 -1.69344 8008 ft 535 kts 185°
2026-05-06 14:25 54.01385 -1.68693 7974 ft 517 kts 166°
2026-05-06 14:25 53.98321 -1.66398 7481 ft 457 kts 148°
2026-05-06 14:25 53.96131 -1.62829 6537 ft 423 kts 126°
2026-05-06 14:26 53.95007 -1.58461 5554 ft 387 kts 102°
2026-05-06 14:26 53.95042 -1.54333 4608 ft 325 kts 74°
2026-05-06 14:26 53.96089 -1.51264 3775 ft 285 kts 41°
2026-05-06 14:26 53.97562 -1.49377 3356 ft 254 kts 32°
2026-05-06 14:27 53.99210 -1.47756 3158 ft 287 kts 25°
2026-05-06 14:27 54.01128 -1.46318 3067 ft 314 kts 21°
2026-05-06 14:27 54.03270 -1.45299 3025 ft 324 kts 14°
2026-05-06 14:27 54.05392 -1.44738 3002 ft 263 kts
2026-05-06 14:28 54.06934 -1.44756 2865 ft 191 kts 355°
2026-05-06 14:28 54.08139 -1.44910 2534 ft 162 kts 355°
2026-05-06 14:28 54.09229 -1.44993 2220 ft 165 kts
2026-05-06 14:28 54.10450 -1.44752 2018 ft 187 kts 10°
2026-05-06 14:29 54.11742 -1.44121 1800 ft 198 kts 18°
2026-05-06 14:29 54.13052 -1.43350 1572 ft 201 kts 19°
2026-05-06 14:29 54.14342 -1.42488 1417 ft 198 kts 22°
2026-05-06 14:29 54.15642 -1.41643 1114 ft 201 kts 18°
2026-05-06 14:30 54.16853 -1.40957 1630 ft 163 kts 18°
2026-05-06 14:30 54.17921 -1.40560 1832 ft 158 kts 355°
2026-05-06 14:30 54.18978 -1.40922 1948 ft 158 kts 342°
2026-05-06 14:30 54.20053 -1.41448 2030 ft 161 kts 345°
2026-05-06 14:31 54.21111 -1.41916 2114 ft 162 kts 340°
2026-05-06 14:31 54.21927 -1.43318 1918 ft 175 kts 290°
2026-05-06 14:31 54.22241 -1.45327 1772 ft 183 kts 281°
2026-05-06 14:31 54.22717 -1.47294 1829 ft 175 kts 314°
2026-05-06 14:32 54.23780 -1.48341 1802 ft 177 kts 347°
2026-05-06 14:32 54.25019 -1.48408 1794 ft 179 kts
2026-05-06 14:32 54.26232 -1.48218 1847 ft 177 kts
2026-05-06 14:32 54.27451 -1.47909 1843 ft 178 kts
2026-05-06 14:33 54.28668 -1.47801 1950 ft 172 kts 355°
2026-05-06 14:33 54.29847 -1.48044 2029 ft 171 kts 352°
2026-05-06 14:33 54.31024 -1.48317 2088 ft 171 kts 351°
2026-05-06 14:33 54.32199 -1.48600 2158 ft 170 kts 351°
2026-05-06 14:34 54.33366 -1.48888 2233 ft 169 kts 351°
2026-05-06 14:34 54.34543 -1.49223 2227 ft 173 kts 348°
2026-05-06 14:34 54.35698 -1.49842 2207 ft 176 kts 332°
2026-05-06 14:34 54.36745 -1.50925 2235 ft 175 kts 327°
2026-05-06 14:35 54.37769 -1.52032 2299 ft 173 kts 330°
2026-05-06 14:35 54.38851 -1.52933 2340 ft 173 kts 337°
2026-05-06 14:35 54.39992 -1.53611 2357 ft 174 kts 342°
2026-05-06 14:35 54.41165 -1.54101 2378 ft 172 kts 349°
2026-05-06 14:36 54.42366 -1.54288 2261 ft 175 kts 360°
2026-05-06 14:36 54.43592 -1.54002 1995 ft 183 kts 12°
2026-05-06 14:36 54.44822 -1.53338 1723 ft 187 kts 22°
2026-05-06 14:36 54.45858 -1.52158 1687 ft 174 kts 42°
2026-05-06 14:37 54.46670 -1.50763 1299 ft 165 kts 46°
2026-05-06 14:37 54.47491 -1.49300 1081 ft 173 kts 45°
2026-05-06 14:37 54.48325 -1.47788 889 ft 176 kts 46°
2026-05-06 14:37 54.49162 -1.46236 646 ft 180 kts 47°
2026-05-06 14:38 54.50009 -1.44628 264 ft 174 kts 47°
2026-05-06 14:38 54.50752 -1.43255 124 ft 137 kts 47°
2026-05-06 14:38 54.51173 -1.42465 125 ft 33 kts 47°
2026-05-06 14:38 54.51291 -1.42245 123 ft 38 kts 47°
2026-05-06 14:39 54.51474 -1.41910 122 ft 35 kts 40°
2026-05-06 14:39 54.51601 -1.41721 124 ft 12 kts 124°
2026-05-06 14:39 54.51502 -1.41858 122 ft 50 kts 227°
2026-05-06 14:39 54.51250 -1.42324 124 ft 20 kts 226°
2026-05-06 14:40 54.51089 -1.42623 123 ft 37 kts 232°
2026-05-06 14:40 54.51061 -1.42960 124 ft 12 kts 273°
2026-05-06 14:40 54.51065 -1.43162 121 ft 26 kts 267°
2026-05-06 14:40 54.51019 -1.43326 124 ft 10 kts 239°
2026-05-06 14:41 54.50987 -1.43430 123 ft 19 kts 256°
2026-05-06 14:41 54.51019 -1.43477 124 ft 20 kts 341°
2026-05-06 14:41 54.51055 -1.43511 124 ft 0 kts 328°